Location: Recife
(8.0585°S, 34.8848°W)
Time: 13:09:00
(UTC-03:00)

Courier 1B - Visible Passes

Search period start: 14 April 2026 00:00
Search period end: 24 April 2026 00:00
Orbit: 962 x 1209 km, 28.3° (Epoch: 14 April)

Date Brightness Start Highest point End Pass type
(mag) Time Alt. Az. Time Alt. Az. Time Alt. Az.
14 Apr 10.1 02:32:33 10° NNE 02:34:27 11° NNE 02:36:38 10° NE visible
14 Apr 8.9 04:21:56 10° NW 04:28:58 43° NNE 04:36:17 10° E visible
14 Apr 9.8 17:50:05 10° WNW 17:54:15 17° NNW 17:58:20 10° N visible
15 Apr 9.3 03:29:39 14° NNW 03:34:54 31° NNE 03:41:31 10° E visible
16 Apr 9.5 02:39:51 21° NNE 02:40:51 22° NNE 02:46:21 10° ENE visible
16 Apr 8.1 04:27:38 10° NW 04:35:06 74° NNE 04:42:56 10° ESE visible
17 Apr 10.3 01:50:04 11° ENE 01:50:04 11° ENE 01:50:34 10° ENE visible
17 Apr 8.4 03:37:00 27° NNW 03:41:02 54° NNE 03:48:33 10° ESE visible
18 Apr 8.8 02:47:12 38° NE 02:47:12 38° NE 02:53:58 10° E visible
18 Apr 7.9 04:34:08 11° WNW 04:41:19 67° SSW 04:49:05 10° SE visible
19 Apr 10.1 01:57:22 16° ENE 01:57:22 16° ENE 01:59:06 10° E visible
19 Apr 7.7 03:44:18 41° WNW 03:47:13 88° SSW 03:54:57 10° ESE visible
20 Apr 8.2 02:54:24 59° E 02:54:24 59° E 03:00:42 10° ESE visible
20 Apr 8.4 04:41:21 12° W 04:47:40 41° SSW 04:54:55 10° SE visible
21 Apr 9.9 02:04:27 18° E 02:04:27 18° E 02:06:17 10° ESE visible
21 Apr 8.0 03:51:23 41° WSW 03:53:29 53° SSW 04:00:57 10° SE visible
22 Apr 8.3 03:01:22 50° SE 03:01:22 50° SE 03:06:54 10° SE visible
22 Apr 8.9 04:48:17 10° WSW 04:54:16 27° SSW 05:00:38 10° SE visible
23 Apr 9.9 02:11:16 17° ESE 02:11:16 17° ESE 02:12:46 10° ESE visible
23 Apr 8.5 03:58:11 30° SW 03:59:58 33° SSW 04:06:42 10° SE visible
